Weather in Kemlya

Russia / Republic of Mordovia     54°41′42″N   45°14′38″E
temp.,
°C
wind,
m/s
gust,
m/s
humid.,
%
clouds,
%
prec.,
mm/h
press.,
hPa
HPBL,
m
12 may, wed
wed1200:00+11nw249274 0.0 102778
03:00+11n2490100 0.2 102691
06:00+13e258894 0.0 1025139
09:00+19e476221 0.0 1025538
12:00+19ese5959100 0.0 10241037
15:00+21sse5105185 0.0 10231563
18:00+18se4145580 0.0 1022560
21:00+16ese5146257 0.1 1022483
13 may, thu
thu1300:00+14ese311807 0.1 1022275
03:00+12ese22911 0.1 102231
06:00+15e278128 0.0 1022204
09:00+20ese7125687 0.0 1021868
12:00+17ese61484100 0.6 1020567
15:00+20ese61168100 0.8 10191295
18:00+19s5117743 3.3 1018624
21:00+16se2392100 3.9 101858
14 may, fri
fri1400:00+14sse12930 0.0 101911
03:00+13ssw229470 0.0 102015
06:00+15sse1290100 0.0 102087
09:00+19sse2376100 0.0 1020397
12:00+22sse346092 0.0 1020964
15:00+25sse35547 0.0 10191653
18:00+23sse376870 0.1 1017289
21:00+18se3484100 0.1 101758
15 may, sat
sat1500:00+17se2284100 0.0 101728
03:00+16se238486 0.0 101747
06:00+17sse3137156 0.0 1016335
09:00+22s6144997 0.0 1016636
12:00+25s71342100 0.0 10161100
15:00+26s6124596 0.0 10161430
18:00+23s5135612 0.0 1015704
21:00+17sse37765 0.0 1015105
16 may, sun
sun1600:00+16sse31472100 0.0 1014295
03:00+15s313735 0.0 1014305
06:00+17s411709 0.0 1015345
09:00+21ssw46595 0.0 1014561
12:00+25ssw575321 0.0 10151135
15:00+25sw695195 0.0 10141693
18:00+23wsw36705 0.0 1014467
21:00+18wsw11865 0.0 101511